Weather History for Kahului, HI

Change the Weather History Date:

Friday, November 30, 2012

  Actual Average Record
Temperature  
Mean Temperature 71 °F 75 °F  
Max Temperature 83 °F 83 °F 89 °F (1977)
Min Temperature 59 °F 67 °F 59 °F (1953)
Degree Days  
Heating Degree Days 0 0  
Month to date heating degree days 0 0  
Since 1 July heating degree days 0 0  
Cooling Degree Days 6 10  
Month to date cooling degree days 301 331  
Year to date cooling degree days 3643 3707  
Growing Degree Days 20 (Base 50)    
Moisture  
Dew Point 60 °F    
Average Humidity 67    
Maximum Humidity 90    
Minimum Humidity 43    
Precipitation  
Precipitation T in 0.10 in 0.71 in (1954)
Month to date precipitation 0.23 2.20  
Year to date precipitation 4.94 14.48  
Snow  
Snow 0.00 in - - ()
Month to date snowfall 0.0  
Since 1 July snowfall 0.0  
Since 1 September snowfall 0.0  
Snow Depth 0.00 in    
Sea Level Pressure  
Sea Level Pressure 30.05 in    
Wind  
Wind Speed 4 mph (East)    
Max Wind Speed 12 mph    
Max Gust Speed 16 mph    
Visibility 10 miles    
Events Rain    
T = Trace of Precipitation, MM = Missing Value Source: NWS Daily Summary

Daily Weather History Graph

Daily Weather History Graph

Search for Another Location

Airport:

Trip Planner

Search our weather history database for the weather conditions in past years. The results will help you decide how hot, cold, wet, or windy it might be!

Date:

Astronomy

Nov. 30, 2012 Rise Set
Actual Time 6:45 AM HST 5:43 PM HST
Civil Twilight 6:21 AM HST 6:07 PM HST
Nautical Twilight 5:54 AM HST 6:34 PM HST
Astronomical Twilight 5:27 AM HST 7:01 PM HST
Moon 7:45 PM HST (11/30) 8:26 AM HST (11/30)
Length of Visible Light 11h 45m
Length of Day
10h 57m
Waning Gibbous, 95% of the Moon is Illuminated
Nov 30
Waning Gibbous
Dec 6
Last Quarter
Dec 12
New
Dec 19
First Quarter
Dec 28
Full

Hourly Weather History & Observations

Time (HST) Temp. Heat Index Dew Point Humidity Pressure Visibility Wind Dir Wind Speed Gust Speed Precip Events Conditions
12:54 AM 66.9 °F - 61.0 °F 81% 30.07 in 10.0 mi SE 4.6 mph - N/A   Clear
1:54 AM 66.0 °F - 59.0 °F 78% 30.05 in 10.0 mi SE 6.9 mph - N/A   Clear
2:54 AM 64.9 °F - 60.1 °F 84% 30.05 in 10.0 mi SSE 5.8 mph - N/A   Clear
3:54 AM 63.0 °F - 59.0 °F 87% 30.04 in 10.0 mi Calm Calm - N/A   Clear
4:54 AM 61.0 °F - 57.0 °F 87% 30.04 in 10.0 mi South 3.5 mph - N/A   Clear
5:54 AM 61.0 °F - 55.9 °F 83% 30.04 in 10.0 mi Calm Calm - N/A   Clear
6:54 AM 60.1 °F - 55.9 °F 86% 30.06 in 10.0 mi South 3.5 mph - N/A   Clear
7:54 AM 64.0 °F - 57.0 °F 78% 30.08 in 10.0 mi Calm Calm - N/A   Clear
8:54 AM 75.0 °F - 59.0 °F 57% 30.10 in 10.0 mi Calm Calm - 0.00 in   Clear
9:54 AM 75.9 °F - 61.0 °F 60% 30.09 in 10.0 mi Calm Calm - 0.00 in Rain Light Rain
10:54 AM 78.1 °F - 63.0 °F 60% 30.08 in 10.0 mi North 6.9 mph - 0.00 in   Partly Cloudy
11:54 AM 81.0 °F 81.6 °F 60.1 °F 49% 30.06 in 10.0 mi NNE 6.9 mph - N/A   Partly Cloudy
12:54 PM 82.9 °F 82.8 °F 59.0 °F 44% 30.03 in 10.0 mi NE 6.9 mph - N/A   Partly Cloudy
1:54 PM 82.0 °F 82.0 °F 57.9 °F 44% 30.00 in 10.0 mi NE 10.4 mph - N/A   Partly Cloudy
2:54 PM 82.9 °F 82.4 °F 57.0 °F 41% 30.00 in 10.0 mi NE 8.1 mph - N/A   Partly Cloudy
3:54 PM 80.1 °F 80.6 °F 57.9 °F 47% 30.00 in 10.0 mi Variable 5.8 mph - N/A   Partly Cloudy
4:54 PM 78.1 °F - 62.1 °F 58% 30.00 in 10.0 mi NE 8.1 mph - N/A   Partly Cloudy
5:54 PM 75.0 °F - 66.0 °F 73% 30.02 in 10.0 mi NNE 6.9 mph - N/A   Partly Cloudy
6:54 PM 73.9 °F - 66.0 °F 76% 30.05 in 10.0 mi Calm Calm - N/A   Partly Cloudy
7:54 PM 73.0 °F - 64.9 °F 76% 30.06 in 10.0 mi West 4.6 mph - N/A   Partly Cloudy
8:54 PM 70.0 °F - 64.0 °F 81% 30.09 in 10.0 mi Calm Calm - N/A   Partly Cloudy
9:54 PM 68.0 °F - 61.0 °F 78% 30.09 in 10.0 mi SSE 4.6 mph - N/A   Clear
10:54 PM 66.9 °F - 60.1 °F 79% 30.09 in 10.0 mi SSE 5.8 mph - N/A   Clear
11:54 PM 64.9 °F - 59.0 °F 81% 30.09 in 10.0 mi Calm Calm - N/A   Clear